This demonstration page uses our WeatherBlox Daily Observations layout. Learn more.

Left ArrowRight Arrow

39.51506, -84.39828

Hourly Observations for June 12, 2018

Temp ( °F °C ) Dew Point ( °F °C ) Humidity (%) Winds ( mph kmh ) Pressure ( in mb ) Visibility ( mi km ) Precip ( " mm )
12:15 am 00:15 Cloudy 70 21.1 67 19.4 90 90 E 7 11 29.94 1014 10 16 N/A
12:35 am 00:35 Cloudy 69 20.8 67 19.3 91 91 E 5 7 29.94 1014 10 16 N/A
12:55 am 00:55 Cloudy 69 20.7 66 18.9 89 89 E 7 11 29.97 1015 10 16 N/A
1:15 am 01:15 Cloudy 69 20.5 66 18.7 89 89 E 5 7 29.97 1015 10 16 N/A
1:35 am 01:35 Cloudy 69 20.4 65 18.6 89 89 ENE 5 7 29.97 1015 10 16 N/A
1:55 am 01:55 Cloudy 69 20.4 65 18.6 89 89 E 7 11 29.94 1014 10 16 N/A
2:15 am 02:15 Cloudy 69 20.3 65 18.6 90 90 E 7 11 29.94 1014 10 16 N/A
2:35 am 02:35 Cloudy 68 20 65 18.5 91 91 ENE 3 6 29.97 1015 10 16 N/A
2:55 am 02:55 Cloudy 68 20.1 66 18.7 92 92 ENE 3 6 29.97 1015 10 16 N/A
3:55 am 03:55 Cloudy 68 20 66 18.9 93 93 N N/A 29.94 1014 10 16 N/A
4:15 am 04:15 Cloudy 69 20.5 66 18.9 91 91 N N/A 29.94 1014 10 16 N/A
4:35 am 04:35 Cloudy 69 20.6 66 19.1 91 91 N N/A 29.94 1014 10 16 N/A
4:55 am 04:55 Cloudy 69 20.6 66 19.1 91 91 SE 3 6 29.94 1014 10 16 N/A
5:15 am 05:15 Cloudy with Light Rain 69 20.4 67 19.3 93 93 E 6 9 29.94 1014 5 8 N/A
5:35 am 05:35 Mostly Cloudy 68 20 67 19.3 96 96 ENE 6 9 29.91 1013 10 16 N/A
5:55 am 05:55 Mostly Cloudy 69 20.3 67 19.4 95 95 E 3 6 29.91 1013 10 16 N/A
6:15 am 06:15 Cloudy 69 20.5 67 19.5 94 94 E 3 6 29.91 1013 7 11 N/A
6:35 am 06:35 Cloudy 69 20.6 67 19.7 95 95 SE 5 7 29.91 1013 10 16 N/A
6:55 am 06:55 Mostly Cloudy 69 20.8 68 19.9 95 95 S 9 15 29.91 1013 10 16 N/A
7:15 am 07:15 Cloudy 70 21.2 68 20.1 93 93 S 7 11 29.94 1014 10 16 N/A
7:35 am 07:35 Cloudy 70 21.1 68 20.1 94 94 SSW 6 9 29.94 1014 10 16 N/A
7:55 am 07:55 Cloudy 71 21.4 68 20 92 92 SSW 8 13 29.94 1014 10 16 N/A
8:15 am 08:15 Cloudy 72 22 69 20.3 90 90 SW 7 11 29.94 1014 10 16 N/A
8:35 am 08:35 Partly Cloudy 72 22.2 68 20.2 89 89 SSW 7 11 29.94 1014 10 16 N/A
8:55 am 08:55 Mostly Cloudy 73 22.6 69 20.3 87 87 SSW 8 13 29.94 1014 10 16 N/A
9:15 am 09:15 Cloudy 73 22.7 69 20.3 86 86 S 7 11 29.97 1015 10 16 N/A
9:35 am 09:35 Cloudy 72 22.4 68 20.1 87 87 SSW 7 11 29.97 1015 10 16 N/A
9:55 am 09:55 Cloudy with Light Rain 72 22.2 68 20.1 88 88 S 8 13 29.97 1015 10 16 N/A
10:15 am 10:15 Cloudy 71 21.7 68 20.2 91 91 S 5 7 29.97 1015 10 16 N/A
10:35 am 10:35 Cloudy 71 21.9 69 20.4 91 91 S 6 9 29.97 1015 10 16 N/A
10:55 am 10:55 Cloudy with Light Rain 71 21.9 69 20.5 92 92 S 8 13 29.97 1015 5 8 0.01 0.25
11:15 am 11:15 Cloudy 72 22.1 70 20.9 93 93 SSW 7 11 29.97 1015 10 16 N/A
11:35 am 11:35 Cloudy with Light Rain 73 22.5 69 20.7 90 90 SW 7 11 29.97 1015 7 11 N/A
11:55 am 11:55 Cloudy 72 22.2 70 20.9 92 92 SSW 7 11 29.97 1015 7 11 N/A
12:15 pm 12:15 Cloudy 73 22.8 70 21 90 90 S 7 11 29.97 1015 10 16 N/A
12:35 pm 12:35 Cloudy 74 23.2 70 21.3 89 89 SSW 10 17 29.97 1015 10 16 N/A
12:55 pm 12:55 Mostly Cloudy 75 24.1 70 21.1 83 83 SSW 10 17 29.97 1015 10 16 N/A
1:15 pm 13:15 Partly Cloudy 77 24.8 70 21.1 80 80 S 12 19 29.97 1015 10 16 N/A
1:35 pm 13:35 Mostly Cloudy 77 25.1 70 20.9 78 78 SSW 12 19 29.97 1015 10 16 N/A
1:55 pm 13:55 Cloudy 78 25.3 70 21 77 77 SSW 10 17 29.94 1014 10 16 N/A
2:15 pm 14:15 Mostly Cloudy 77 25.2 70 20.9 77 77 SW 9 15 29.94 1014 10 16 N/A
2:35 pm 14:35 Partly Cloudy 78 25.6 69 20.5 73 73 SSW 7 11 29.94 1014 10 16 N/A
2:55 pm 14:55 Sunny 81 27 70 21.2 71 71 S 7 11 29.91 1013 10 16 N/A
3:15 pm 15:15 Partly Cloudy 79 26.2 68 20.1 69 69 S 9 15 29.91 1013 10 16 N/A
3:35 pm 15:35 Sunny 79 25.9 68 20.1 70 70 SW 9 15 29.91 1013 10 16 N/A
3:55 pm 15:55 Sunny 80 26.4 68 20.1 68 68 SW 8 13 29.91 1013 10 16 N/A
4:15 pm 16:15 Partly Cloudy 82 28 70 21 66 66 SSW 10 17 29.88 1012 10 16 N/A
4:35 pm 16:35 Partly Cloudy 81 27.2 67 19.5 63 63 SW 12 19 29.91 1013 10 16 N/A
4:55 pm 16:55 Partly Cloudy 80 26.6 67 19.7 66 66 SW 9 15 29.91 1013 10 16 N/A
5:15 pm 17:15 Mostly Cloudy 80 26.8 68 20.1 67 67 SW 8 13 29.88 1012 10 16 N/A
5:35 pm 17:35 Cloudy with Heavy Rain 74 23.2 69 20.6 85 85 SSW 13 20 29.91 1013 3 4 0.16 4.06
5:55 pm 17:55 Cloudy with Light Rain 71 21.7 69 20.6 94 94 SSW 7 11 29.91 1013 4 6 0.36 9.14
6:15 pm 18:15 Cloudy with Light Rain 72 22.3 70 21.3 94 94 S 6 9 29.91 1013 10 16 N/A
6:35 pm 18:35 Cloudy 74 23.1 71 21.6 91 91 S 8 13 29.91 1013 10 16 N/A
6:55 pm 18:55 Cloudy 73 22.8 70 21 90 90 S 7 11 29.91 1013 10 16 N/A
7:15 pm 19:15 Mostly Cloudy 72 22.4 69 20.6 90 90 S 9 15 29.91 1013 10 16 N/A
7:35 pm 19:35 Partly Cloudy 72 22 69 20.3 90 90 S 9 15 29.91 1013 10 16 N/A
7:55 pm 19:55 Cloudy 71 21.8 69 20.4 92 92 SSE 3 6 29.91 1013 10 16 N/A
8:15 pm 20:15 Cloudy 71 21.9 69 20.7 93 93 N N/A 29.91 1013 10 16 N/A
8:35 pm 20:35 Cloudy 71 21.8 69 20.8 94 94 N N/A 29.91 1013 10 16 N/A
8:55 pm 20:55 Cloudy 71 21.7 70 20.9 95 95 N N/A 29.91 1013 10 16 N/A
9:15 pm 21:15 Mostly Cloudy 71 21.6 70 21 96 96 N N/A 29.91 1013 7 11 N/A
9:35 pm 21:35 Partly Cloudy 71 21.4 69 20.8 96 96 ESE 3 6 29.91 1013 10 16 N/A
9:55 pm 21:55 Mostly Cloudy 70 21.3 69 20.8 97 97 ESE 3 6 29.88 1012 7 11 N/A
10:15 pm 22:15 Clear 70 21.3 69 20.8 97 97 N N/A 29.88 1012 7 11 N/A
10:35 pm 22:35 Partly Cloudy with Mist and Fog 70 21 69 20.7 98 98 N N/A 29.91 1013 5 8 N/A
10:55 pm 22:55 Partly Cloudy with Mist and Fog 70 20.9 69 20.6 98 98 N N/A 29.91 1013 5 8 N/A
11:15 pm 23:15 Mostly Cloudy with Mist and Fog 69 20.8 69 20.5 98 98 N N/A 29.91 1013 4 6 N/A
11:35 pm 23:35 Cloudy with Light Rain 70 20.9 69 20.6 98 98 S 3 6 29.91 1013 5 8 N/A
11:55 pm 23:55 Partly Cloudy with Mist and Fog 70 21 69 20.6 98 98 N N/A 29.91 1013 5 8 N/A

Powered by AerisWeather